Weather History for Curacao, Curacao

Change the Weather History Date:

Wednesday, February 8, 2012

  Actual Average Record
Temperature  
Mean Temperature 80 °F -  
Max Temperature 84 °F 84 °F 89 °F (2001)
Min Temperature 77 °F 75 °F 73 °F (2006)
Cooling Degree Days 16    
Growing Degree Days 30 (Base 50)    
Moisture  
Dew Point 73 °F    
Average Humidity 78    
Maximum Humidity 83    
Minimum Humidity 66    
Precipitation  
Precipitation 0.00 in 0.03 in - ()
Sea Level Pressure  
Sea Level Pressure 29.90 in    
Wind  
Wind Speed 12 mph ()    
Max Wind Speed 16 mph    
Max Gust Speed -    
Visibility 8.1 miles    
Events      
Averages and records for this station are not official NWS values.
T = Trace of Precipitation, MM = Missing Value Source: Averaged Metar Reports

Daily Weather History Graph

Daily Weather History Graph

Search for Another Location

Airport:

Trip Planner

Search our weather history database for the weather conditions in past years. The results will help you decide how hot, cold, wet, or windy it might be!

Date:

Astronomy

Feb. 08, 2012 Rise Set
Actual Time 6:59 AM AST 6:40 PM AST
Civil Twilight 6:37 AM AST 7:02 PM AST
Nautical Twilight 6:12 AM AST 7:27 PM AST
Astronomical Twilight 5:47 AM AST 7:52 PM AST
Moon 7:32 PM AST (2/8) 7:18 AM AST (2/8)
Length of Visible Light 12h 24m
Length of Day
11h 40m
Full, 99% of the Moon is Illuminated
Feb 8
Full
Feb 14
Last Quarter
Feb 21
New
Feb 29
First Quarter
Mar 8
Full

Hourly Weather History & Observations

Time (AST) Temp. Heat Index Dew Point Humidity Pressure Visibility Wind Dir Wind Speed Gust Speed Precip Events Conditions
12:00 AM 78.8 °F - 73.4 °F 83% 29.92 in 6.2 mi East 16.1 mph - N/A   Mostly Cloudy
1:00 AM 78.8 °F - 73.4 °F 83% 29.89 in 6.2 mi East 12.7 mph - N/A   Mostly Cloudy
2:00 AM 78 °F - 72 °F 78% 29.90 in 16 mi East 13.8 mph - -   Partly Cloudy
2:00 AM 78.8 °F - 71.6 °F 78% 29.89 in 6.2 mi East 13.8 mph - N/A   Scattered Clouds
3:00 AM 78.8 °F - 73.4 °F 83% 29.89 in 6.2 mi East 15.0 mph - N/A   Scattered Clouds
4:00 AM 78.8 °F - 73.4 °F 83% 29.86 in 6.2 mi East 12.7 mph - N/A   Scattered Clouds
5:00 AM 78 °F - 72 °F 78% 29.87 in 16 mi East 13.8 mph - -   Partly Cloudy
5:00 AM 78.8 °F - 73.4 °F 83% 29.86 in 6.2 mi East 12.7 mph - N/A   Scattered Clouds
6:00 AM 78.8 °F - 73.4 °F 83% 29.86 in 6.2 mi East 13.8 mph - N/A   Scattered Clouds
7:00 AM 78.8 °F - 73.4 °F 83% 29.89 in 6.2 mi East 15.0 mph - N/A   Scattered Clouds
8:00 AM 79 °F - 72 °F 75% 29.92 in 16 mi ESE 12.7 mph - -   Partly Cloudy
8:00 AM 78.8 °F - 73.4 °F 83% 29.92 in 6.2 mi ESE 13.8 mph - N/A   Scattered Clouds
9:00 AM 80.6 °F 85.4 °F 73.4 °F 79% 29.92 in 6.2 mi East 13.8 mph - N/A   Scattered Clouds
10:00 AM 82.4 °F 87.2 °F 71.6 °F 70% 29.95 in 6.2 mi East 13.8 mph - N/A   Scattered Clouds
11:00 AM 83 °F - 73 °F 66% 29.96 in 16 mi East 12.7 mph - -   Partly Cloudy
11:00 AM 84.2 °F 90.9 °F 73.4 °F 70% 29.95 in 6.2 mi East 12.7 mph - N/A   Scattered Clouds
12:00 PM 82.4 °F 88.2 °F 73.4 °F 74% 29.95 in 6.2 mi East 13.8 mph - N/A   Scattered Clouds
1:00 PM 84.2 °F 90.9 °F 73.4 °F 70% 29.92 in 6.2 mi East 11.5 mph - N/A   Scattered Clouds
2:00 PM 84.2 °F 90.9 °F 73.4 °F 70% 29.89 in 6.2 mi East 11.5 mph - N/A   Scattered Clouds
4:00 PM 82.4 °F 88.2 °F 73.4 °F 74% 29.86 in 6.2 mi East 13.8 mph - N/A   Scattered Clouds
5:00 PM 84.2 °F 89.6 °F 71.6 °F 66% 29.83 in 6.2 mi ESE 11.5 mph - N/A   Partly Cloudy
6:00 PM 80.6 °F 84.6 °F 71.6 °F 74% 29.83 in 6.2 mi ESE 12.7 mph - N/A   Partly Cloudy
7:00 PM 77.0 °F - 71.6 °F 83% 29.86 in 6.2 mi ESE 10.4 mph - N/A   Partly Cloudy
8:00 PM 77.0 °F - 71.6 °F 83% 29.86 in 6.2 mi ESE 9.2 mph - N/A   Partly Cloudy
9:00 PM 78.8 °F - 73.4 °F 83% 29.89 in 6.2 mi East 12.7 mph - N/A   Partly Cloudy
11:00 PM 78 °F - 73 °F 79% 29.92 in 19 mi ESE 12.7 mph - -   Partly Cloudy
11:00 PM 78.8 °F - 73.4 °F 83% 29.92 in 6.2 mi East 13.8 mph - N/A   Scattered Clouds